User: anonymous   Login
Location: Unspecified
(0.0000°N, 0.0000°E)
Time: 05:57:03
(UTC+00:00)
Language:

PRATHAM - Orbit

View from above orbital plane
View from above orbital plane
View from above satellite
View from above satellite

Ground track
Ground track

The orbit data is extracted from the following two-line orbital elements,

1 41783U 16059A   19083.83313409  .00000043  00000-0  17778-4 0  9997
2 41783  98.0780 145.2659 0032286 294.8521  64.9325 14.62979216132991
Epoch (UTC): 24 March 2019 19:59:42
Eccentricity: 0.0032286
inclination: 98.0780°
perigee height: 661 km
apogee height: 706 km
right ascension of ascending node: 145.2659°
argument of perigee: 294.8521°
revolutions per day: 14.62979216
mean anomaly at epoch: 64.9325°
orbit number at epoch: 13299

The dashed part of the orbit path shows where the satellite is in the earth's shadow,  

DLR